Location: Bothwell
(42.3833°S, 147.0000°E)
Time: 22:27:13
(UTC+10:00)

Envisat - Pass Details

Date: 24 February 2024
Orbit: 762 x 764 km, 98.3° (Epoch: 22 April)

Event Time Altitude Azimuth Distance (km) Brightness Sun altitude
Exits shadow 02:18:02 14° 107° (ESE) 2,041 5.5 -36.4°
Maximum altitude 02:19:02 15° 120° (ESE) 1,998 5.5 -36.3°
Drops below altitude 10° 02:21:50 10° 153° (SSE) 2,332 6.2 -36.2°
Sets 02:25:07 0° 175° (S) 3,267 7.2 -36.0°
